[[{"header":{"parameterUnit":"m.s-1","parameterCategory":1,"la1":30.2991,"la2":30.254,"lo1":-89.0895,"lo2":-89.0444,"dy":0.0017,"dx":0.0017,"nx":28,"ny":28,"refTime":"2023-10-23T03:00:00:Z","depth":0,"parameterNumber":2,"parameterNumberName":"U-component_of_WINDS"},"data":[0,0,0,0,0,0,0,0,0,0,0,0,0,0,0,0,0,0,0,0,0,0,0,0,0,0,0,0,0,0,0,0,0,0,0,0,0,0,0,0,0,0,0,0,0,0,0,0,0,0,0,0,0,0,0,0,0,0,-1.7877,-1.7877,0,-1.7889,-1.7889,-1.7889,-1.7871,-1.7871,-1.787,-1.7869,-1.7883,-1.7884,-1.7885,0,0,0,0,0,0,0,0,0,0,0,0,0,-1.7845,-1.7846,-1.7877,-1.7877,-1.7878,-1.7889,-1.7889,-1.7889,-1.7871,-1.7871,-1.787,-1.7869,-1.7882,-1.7884,-1.7885,0,0,0,0,0,0,0,0,0,0,0,0,0,-1.7858,-1.7846,-1.7877,-1.787,-1.787,-1.7889,-1.7889,-1.7889,-1.7872,-1.7871,-1.787,-1.7869,-1.7882,-1.7883,-1.7885,-1.7912,0,0,-1.7889,-1.789,0,0,0,0,0,0,0,0,-1.7857,-1.7859,-1.7871,-1.7871,-1.787,-1.7878,-1.7882,-1.7897,-1.7872,-1.7871,-1.7869,-1.7868,-1.7882,-1.7883,-1.7887,-1.7912,-1.7913,-1.7889,-1.789,-1.7891,-1.7891,0,0,0,0,0,0,0,-1.7856,-1.7859,-1.7882,-1.7871,-1.7871,-1.7868,-1.7869,-1.7885,-1.7881,-1.7871,-1.787,-1.7871,-1.7881,-1.7886,-1.7888,-1.7913,-1.7889,-1.789,-1.7891,-1.7892,-1.7965,-1.7966,0,0,0,0,0,0,-1.7856,-1.7858,-1.7881,-1.7882,-1.7861,-1.7869,-1.787,-1.7876,-1.7881,-1.7881,-1.7872,-1.787,-1.7884,-1.7886,-1.7888,-1.7922,-1.7891,-1.7892,-1.7893,-1.7964,-1.7965,-1.7966,0,0,0,0,0,0,-1.7855,-1.7858,-1.7881,-1.787,-1.7872,-1.7871,-1.7878,-1.7877,-1.7881,-1.7882,-1.7882,-1.7877,-1.7884,-1.7886,-1.7907,-1.7922,-1.7893,-1.7894,-1.7962,-1.7964,-1.7966,-1.7989,0,0,0,0,0,0,-1.7854,-1.7858,-1.7867,-1.787,-1.7873,-1.7898,-1.7878,-1.7878,-1.7884,-1.7882,-1.7887,-1.7887,-1.7883,-1.7905,-1.7908,-1.7923,-1.7895,-1.7961,-1.7963,-1.7965,-1.7987,-1.7991,-1.7995,0,0,0,0,0,-1.7853,-1.7872,-1.7867,-1.787,-1.7884,-1.7899,-1.7901,-1.7896,-1.7885,-1.7895,-1.7896,-1.7886,-1.792,-1.7907,-1.7911,-1.7927,-1.796,-1.7963,-1.7965,-1.7985,-1.799,-1.7995,0,0,0,0,0,0,-1.7871,-1.7873,-1.7867,-1.7887,-1.7893,-1.7896,-1.7908,-1.7901,-1.791,-1.7908,-1.7902,-1.7904,-1.7926,-1.7929,-1.7914,-1.7955,-1.7938,-1.7942,-1.7952,-1.7957,-1.7961,-1.796,-1.7896,0,0,0,0,0,-1.7877,-1.7888,-1.7889,-1.7908,-1.7911,-1.7909,-1.7915,-1.7911,-1.7917,-1.792,-1.7922,-1.7929,-1.7942,-1.795,-1.7961,-1.7987,-1.799,-1.8001,-1.8005,-1.8008,-1.8011,-1.8028,-1.8034,-1.7974,-1.7974,-1.7974,0,0,-1.789,-1.7892,-1.7899,-1.7911,-1.7915,-1.7928,-1.7911,-1.7925,-1.7935,-1.7922,-1.7942,-1.7944,-1.7952,-1.7977,-1.7987,-1.7979,-1.8028,-1.8011,-1.8014,-1.8015,-1.8031,-1.8037,-1.8042,-1.7976,-1.7976,-1.7976,0,0,-1.792,-1.7923,-1.7939,-1.7944,-1.7951,-1.795,-1.7954,-1.7959,-1.796,-1.798,-1.7971,-1.7984,-1.8005,-1.8012,-1.8018,-1.8056,-1.8048,-1.806,-1.8081,-1.8098,-1.8102,-1.8106,-1.8121,-1.8127,-1.8063,-1.8063,-1.8063,0,-1.7935,-1.7954,-1.7948,-1.7964,-1.797,-1.796,-1.7978,-1.7983,-1.7994,-1.7999,-1.799,-1.8018,-1.8023,-1.805,-1.8059,-1.8064,-1.8071,-1.8058,-1.8102,-1.8106,-1.811,-1.8124,-1.813,-1.8064,-1.8064,-1.8064,-1.8064,0,-1.7973,-1.7986,-1.7999,-1.801,-1.8018,-1.8035,-1.8034,-1.8043,-1.804,-1.8041,-1.8064,-1.8069,-1.8082,-1.8089,-1.8085,-1.8117,-1.8112,-1.8102,-1.8086,-1.8117,-1.813,-1.8136,-1.8066,-1.8066,-1.8065,-1.8065,0,0,-1.8012,-1.8022,-1.8027,-1.8033,-1.8041,-1.8052,-1.807,-1.8083,-1.8093,-1.8101,-1.8117,-1.8137,-1.813,-1.8137,-1.8134,-1.8149,-1.8181,-1.8138,-1.8138,-1.8147,-1.822,-1.8227,-1.8233,-1.8177,-1.8178,-1.8179,-1.8219,0,-1.8043,-1.8072,-1.807,-1.8099,-1.8112,-1.8105,-1.8121,-1.8129,-1.8132,-1.8145,-1.8148,-1.8163,-1.8151,-1.8156,-1.817,-1.8174,-1.8196,-1.8171,-1.8193,-1.8194,-1.8192,-1.824,-1.8247,-1.8284,-1.8224,-1.8225,-1.8226,0,-1.8082,-1.8093,-1.8123,-1.8133,-1.8138,-1.8152,-1.8166,-1.8179,-1.8189,-1.819,-1.82,-1.8196,-1.8217,-1.8201,-1.823,-1.8214,-1.8223,-1.8227,-1.8229,-1.823,-1.8212,-1.8244,-1.8296,-1.8302,-1.8234,-1.8233,-1.8233,0,-1.8109,-1.8131,-1.8153,-1.8158,-1.8169,-1.818,-1.8185,-1.8195,-1.8204,-1.8217,-1.8224,-1.8239,-1.8248,-1.8261,-1.8262,-1.825,-1.8293,-1.8276,-1.8296,-1.8296,-1.8305,-1.8304,-1.836,-1.8311,-1.831,-1.831,-1.831,0,-1.8144,-1.8163,-1.8165,-1.8178,-1.8201,-1.82,-1.8222,-1.8227,-1.8236,-1.8252,-1.8247,-1.8262,-1.8263,-1.828,-1.8281,-1.8307,-1.8311,-1.8314,-1.8314,-1.8314,-1.8314,-1.832,-1.8317,-1.8312,-1.8312,-1.8311,-1.8311,0,-1.8177,-1.8179,-1.8202,-1.8212,-1.8215,-1.8231,-1.824,-1.8254,-1.8258,-1.8278,-1.8283,-1.8289,-1.8308,-1.8311,-1.8334,-1.8335,-1.8367,-1.8364,-1.8363,-1.8363,-1.8383,-1.8381,-1.8445,-1.8454,-1.8398,-1.8399,-1.8399,0,-1.8199,-1.8213,-1.8225,-1.8236,-1.8242,-1.8258,-1.8268,-1.8269,-1.828,-1.8295,-1.8308,-1.8327,-1.8342,-1.8374,-1.8381,-1.84,-1.8398,-1.8419,-1.8401,-1.8402,-1.84,-1.8399,-1.8402,-1.8422,-1.8423,-1.8424,-1.8424,0,-1.8238,-1.8239,-1.8253,-1.8269,-1.8282,-1.8294,-1.8306,-1.8315,-1.8318,-1.8331,-1.8351,-1.8363,-1.8388,-1.8408,-1.8427,-1.8434,-1.8431,-1.843,-1.8436,-1.8436,-1.8435,-1.8438,-1.8373,-1.8428,-1.8428,-1.8428,-1.8427,-1.8427,-1.8267,-1.828,-1.8292,-1.8309,-1.8318,-1.8331,-1.8345,-1.8351,-1.8368,-1.8387,-1.8388,-1.841,-1.8424,-1.845,-1.8459,-1.8478,-1.8471,-1.8479,-1.8482,-1.8484,-1.8486,-1.8433,-1.8482,-1.8481,-1.8481,-1.8481,-1.8481,0,-1.8306,-1.8314,-1.833,-1.8348,-1.8362,-1.8358,-1.8372,-1.8384,-1.8404,-1.8417,-1.8433,-1.8458,-1.8478,-1.8489,-1.851,-1.8523,-1.8522,-1.8529,-1.8528,-1.853,-1.849,-1.8483,-1.8529,-1.8529,-1.8529,-1.8529,-1.8529,-1.8529,-1.8329,-1.8352,-1.8356,-1.8386,-1.8394,-1.8416,-1.8424,-1.8437,-1.8448,-1.8475,-1.8492,-1.8499,-1.8512,-1.8535,-1.8554,-1.8557,-1.8566,-1.8573,-1.8575,-1.8537,-1.8532,-1.8528,-1.8522,-1.8575,-1.8575,-1.8614,-1.8614,-1.8614]},{"header":{"parameterUnit":"m.s-1","parameterCategory":1,"la1":30.2991,"la2":30.254,"lo1":-89.0895,"lo2":-89.0444,"dy":0.0017,"dx":0.0017,"nx":28,"ny":28,"refTime":"2023-10-23T03:00:00:Z","depth":0,"parameterNumber":3,"parameterNumberName":"V-component_of_WINDS"},"data":[0,0,0,0,0,0,0,0,0,0,0,0,0,0,0,0,0,0,0,0,0,0,0,0,0,0,0,0,0,0,0,0,0,0,0,0,0,0,0,0,0,0,0,0,0,0,0,0,0,0,0,0,0,0,0,0,0,0,1.2976,1.2977,0,1.3035,1.3035,1.3036,1.3125,1.3127,1.3128,1.313,1.3185,1.3185,1.3185,0,0,0,0,0,0,0,0,0,0,0,0,0,1.2939,1.2939,1.2976,1.2977,1.2978,1.3035,1.3035,1.3036,1.3125,1.3127,1.3129,1.3131,1.3185,1.3185,1.3185,0,0,0,0,0,0,0,0,0,0,0,0,0,1.2972,1.2939,1.2976,1.3029,1.3034,1.3034,1.3035,1.3036,1.3124,1.3127,1.3129,1.3131,1.3185,1.3185,1.3185,1.3136,0,0,1.3185,1.3185,0,0,0,0,0,0,0,0,1.297,1.2973,1.3021,1.3025,1.3031,1.3075,1.3043,1.307,1.3124,1.309,1.313,1.3133,1.3146,1.3149,1.3155,1.3139,1.3141,1.3185,1.3185,1.3185,1.3185,0,0,0,0,0,0,0,1.2968,1.2971,1.2999,1.3021,1.3028,1.3049,1.3056,1.3048,1.3104,1.3093,1.31,1.3106,1.3149,1.3155,1.3157,1.3142,1.3185,1.3185,1.3185,1.3184,1.3091,1.3089,0,0,0,0,0,0,1.2958,1.2969,1.2998,1.3001,1.3006,1.3048,1.3056,1.3059,1.3104,1.3113,1.3104,1.311,1.3154,1.3157,1.3159,1.3106,1.3185,1.3184,1.3184,1.3093,1.309,1.3088,0,0,0,0,0,0,1.2957,1.296,1.2995,1.2987,1.2993,1.3046,1.3048,1.3058,1.3064,1.3112,1.3122,1.3099,1.3156,1.3159,1.3142,1.3109,1.3184,1.3184,1.3096,1.3092,1.3089,1.2999,0,0,0,0,0,0,1.2955,1.2959,1.2941,1.2986,1.2993,1.2978,1.3046,1.3058,1.3064,1.3073,1.311,1.3119,1.3158,1.3142,1.3142,1.3111,1.3184,1.3099,1.3095,1.309,1.3006,1.2993,1.2983,0,0,0,0,0,1.2954,1.2913,1.294,1.2943,1.2973,1.2976,1.298,1.3027,1.3061,1.3044,1.3075,1.3118,1.3113,1.3139,1.314,1.3108,1.3102,1.3096,1.3091,1.3011,1.2996,1.2983,0,0,0,0,0,0,1.2861,1.2919,1.295,1.2923,1.2944,1.2991,1.297,1.3009,1.3019,1.3027,1.3083,1.3091,1.3067,1.3086,1.3114,1.3065,1.3114,1.3108,1.3053,1.3039,1.3028,1.3023,1.3184,0,0,0,0,0,1.2838,1.2836,1.2887,1.2858,1.2867,1.2917,1.292,1.2954,1.2978,1.2986,1.3017,1.3036,1.304,1.3041,1.3046,1.3009,1.3019,1.2988,1.2977,1.2967,1.2961,1.2943,1.293,1.307,1.307,1.307,0,0,1.2789,1.2821,1.2816,1.284,1.286,1.2857,1.2923,1.2916,1.2914,1.2985,1.2971,1.2994,1.302,1.2993,1.2983,1.3008,1.2925,1.296,1.2952,1.2951,1.2936,1.2923,1.2911,1.3066,1.3067,1.3067,0,0,1.2698,1.2722,1.2701,1.272,1.2751,1.2785,1.278,1.2821,1.284,1.2827,1.2881,1.2878,1.2883,1.29,1.2909,1.2826,1.2866,1.2826,1.2766,1.2748,1.2737,1.2728,1.2698,1.2687,1.2821,1.282,1.282,0,1.2632,1.2631,1.2684,1.2675,1.2684,1.275,1.2729,1.2745,1.2775,1.2779,1.2808,1.2816,1.2838,1.2817,1.2797,1.2802,1.2797,1.2822,1.2735,1.2726,1.2718,1.269,1.2679,1.2815,1.2816,1.2817,1.2817,0,1.2549,1.2547,1.2526,1.2556,1.2563,1.2547,1.2597,1.2597,1.2632,1.2662,1.2649,1.2678,1.2692,1.2689,1.2722,1.2672,1.2687,1.2725,1.2775,1.2699,1.2674,1.2663,1.2808,1.281,1.2812,1.2813,0,0,1.2399,1.2461,1.2452,1.2467,1.2507,1.2506,1.2493,1.2508,1.2507,1.2526,1.2517,1.252,1.2556,1.2566,1.2601,1.2586,1.2519,1.2625,1.2627,1.2604,1.2466,1.2437,1.2424,1.2546,1.2544,1.2543,1.2464,0,1.2316,1.23,1.2348,1.2319,1.2318,1.2382,1.2371,1.2393,1.2422,1.2424,1.2456,1.2457,1.2504,1.251,1.2498,1.253,1.2492,1.2536,1.2537,1.2536,1.2527,1.2411,1.238,1.2304,1.2454,1.2453,1.2452,0,1.2216,1.2232,1.2203,1.2246,1.2248,1.2237,1.2255,1.2257,1.2284,1.2306,1.2319,1.2361,1.2351,1.24,1.2387,1.2416,1.242,1.2435,1.2434,1.2435,1.2488,1.2408,1.2281,1.2269,1.2437,1.2438,1.2439,0,1.211,1.2124,1.2109,1.212,1.2169,1.2161,1.2181,1.2211,1.2217,1.2233,1.2237,1.2251,1.2257,1.2267,1.2311,1.2343,1.2293,1.2346,1.231,1.2308,1.2295,1.2295,1.2166,1.2298,1.2298,1.2299,1.2299,0,1.2011,1.1991,1.2062,1.2052,1.2032,1.2088,1.2065,1.2092,1.2118,1.2114,1.217,1.2165,1.2225,1.2226,1.2261,1.2245,1.2247,1.2264,1.2273,1.2259,1.2256,1.2261,1.2267,1.2296,1.2296,1.2297,1.2297,0,1.1888,1.1935,1.1923,1.1972,1.1984,1.1966,1.2008,1.2001,1.2034,1.2028,1.203,1.2081,1.2086,1.2132,1.2146,1.2169,1.214,1.2159,1.2131,1.2137,1.2098,1.2101,1.1966,1.1951,1.2093,1.2092,1.2091,0,1.1821,1.1808,1.1856,1.1858,1.1877,1.1879,1.1887,1.1942,1.1947,1.1978,1.1967,1.1977,1.1987,1.1992,1.2029,1.204,1.206,1.2013,1.2062,1.2048,1.2059,1.2059,1.2058,1.2001,1.2,1.1998,1.1997,0,1.1698,1.1723,1.1732,1.175,1.1758,1.1773,1.1793,1.1791,1.1852,1.1855,1.1862,1.187,1.1886,1.1894,1.1913,1.1933,1.1974,1.1981,1.1974,1.1958,1.1942,1.195,1.2101,1.1984,1.1985,1.1986,1.1987,1.1987,1.1601,1.1593,1.1626,1.1634,1.1655,1.1672,1.1669,1.1702,1.1709,1.1727,1.1759,1.1761,1.179,1.1819,1.1836,1.1837,1.1862,1.1851,1.1848,1.1844,1.1836,1.1942,1.1841,1.1841,1.1842,1.1842,1.1842,0,1.1481,1.1506,1.1514,1.154,1.1547,1.1588,1.1612,1.1615,1.1616,1.164,1.165,1.1658,1.1667,1.1706,1.172,1.1713,1.1733,1.1715,1.1715,1.1719,1.1813,1.1819,1.1699,1.1699,1.1699,1.1699,1.1699,1.1699,1.1419,1.1406,1.1435,1.1433,1.1459,1.1462,1.1472,1.1488,1.1508,1.1515,1.1524,1.155,1.158,1.1596,1.1606,1.1618,1.1619,1.1595,1.1612,1.1699,1.1713,1.1726,1.1731,1.1595,1.1595,1.1518,1.1517,1.1517]}]]